,,PA_Meas_PMT16A,,PR_Meas_QMR101_102,,RH_Meas_QMH101,,SR_Meas_QMS101,,TA_Meas_QMH101,,GenWind,,GenWind,
time,status,PA,status,PR,status,RH,status,SR,status,TA,status,DirAvg,status,SpdAvg,
2014-06-03, 06:52:04,VALID,914.789,VALID,0.2,VALID,97.1299,VALID,45.2327,VALID,20.4244,VALID,115,VALID,0,
2014-06-03, 06:53:04,VALID,914.814,VALID,0,VALID,97.1604,VALID,48.1336,VALID,20.4049,VALID,115,VALID,0,
2014-06-03, 06:54:04,VALID,914.816,VALID,0,VALID,97.1604,VALID,50.175,VALID,20.3854,VALID,115,VALID,0.636328,
2014-06-03, 06:55:04,VALID,914.837,VALID,0,VALID,97.1528,VALID,50.6048,VALID,20.4049,VALID,115,VALID,0.567187,
2014-06-03, 06:56:04,VALID,914.848,VALID,0,VALID,97.1452,VALID,53.5057,VALID,20.3854,VALID,23,VALID,0.841016,
2014-06-03, 06:57:04,VALID,914.841,VALID,0,VALID,97.1299,VALID,57.0513,VALID,20.4049,VALID,23,VALID,0.053125,
2014-06-03, 06:58:04,VALID,914.855,VALID,0,VALID,97.1376,VALID,59.3075,VALID,20.4634,VALID,23,VALID,0,
2014-06-03, 06:59:04,VALID,914.881,VALID,0,VALID,97.1376,VALID,59.9522,VALID,20.5219,VALID,23,VALID,0,
2014-06-03, 07:00:04,VALID,914.838,VALID,0,VALID,97.1147,VALID,55.6545,VALID,20.5625,VALID,23,VALID,0,
2014-06-03, 07:01:04,VALID,914.865,VALID,0,VALID,97.1147,VALID,45.9848,VALID,20.5414,VALID,23,VALID,0,
2014-06-03, 07:02:04,VALID,914.872,VALID,0,VALID,97.1223,VALID,44.4806,VALID,20.5219,VALID,23,VALID,0,
2014-06-03, 07:03:04,VALID,914.887,VALID,0,VALID,97.1299,VALID,48.2411,VALID,20.504,VALID,23,VALID,0,
2014-06-03, 07:04:04,VALID,914.87,VALID,0,VALID,97.1376,VALID,50.9271,VALID,20.5024,VALID,23,VALID,0,
2014-06-03, 07:05:04,VALID,914.896,VALID,0,VALID,97.1299,VALID,58.6629,VALID,20.5235,VALID,23,VALID,0,
2014-06-03, 07:06:04,VALID,914.907,VALID,0,VALID,97.1376,VALID,65.6465,VALID,20.504,VALID,23,VALID,0,
2014-06-03, 07:07:04,VALID,914.996,VALID,0,VALID,97.1223,VALID,77.2502,VALID,20.5414,VALID,23,VALID,0,
2014-06-03, 07:08:04,VALID,914.983,VALID,0,VALID,97.1223,VALID,82.2999,VALID,20.5804,VALID,23,VALID,0.786719,
2014-06-03, 07:09:04,VALID,915.026,VALID,0,VALID,97.0994,VALID,89.6059,VALID,20.6015,VALID,23,VALID,0.870313,
2014-06-03, 07:10:04,VALID,915.081,VALID,0,VALID,97.1147,VALID,93.2589,VALID,20.5609,VALID,23,VALID,0.759375,
2014-06-03, 07:11:04,VALID,915.085,VALID,0,VALID,97.1147,VALID,88.1017,VALID,20.6226,VALID,20,VALID,1.07148,
2014-06-03, 07:12:04,VALID,915.153,VALID,0,VALID,97.1223,VALID,86.4901,VALID,20.6015,VALID,4,VALID,1.30586,
2014-06-03, 07:13:04,VALID,915.158,VALID,0,VALID,97.1147,VALID,73.7046,VALID,20.5999,VALID,348,VALID,0.776172,
2014-06-03, 07:14:04,VALID,915.179,VALID,0,VALID,97.1147,VALID,74.6716,VALID,20.66,VALID,17,VALID,0.979297,
2014-06-03, 07:15:04,VALID,915.205,VALID,0,VALID,97.1223,VALID,81.4404,VALID,20.5999,VALID,334,VALID,0.291016,
2014-06-03, 07:16:04,VALID,915.261,VALID,0,VALID,97.1299,VALID,86.8125,VALID,20.5804,VALID,334,VALID,0.537891,
2014-06-03, 07:17:04,VALID,915.274,VALID,0,VALID,97.1376,VALID,77.4651,VALID,20.5219,VALID,334,VALID,0.330469,
2014-06-03, 07:18:04,VALID,915.339,VALID,0,VALID,97.1528,VALID,79.0767,VALID,20.5414,VALID,334,VALID,0.483203,
2014-06-03, 07:19:04,VALID,915.373,VALID,0,VALID,97.1299,VALID,72.4153,VALID,20.5219,VALID,334,VALID,0.612891,
2014-06-03, 07:20:04,VALID,915.398,VALID,0,VALID,97.1376,VALID,75.9609,VALID,20.4634,VALID,334,VALID,0.561328,
2014-06-03, 07:21:04,VALID,915.413,VALID,0,VALID,97.1452,VALID,72.8451,VALID,20.4634,VALID,334,VALID,0.353516,
2014-06-03, 07:22:04,VALID,915.452,VALID,0,VALID,97.1452,VALID,63.3903,VALID,20.5024,VALID,334,VALID,0.221484,
2014-06-03, 07:23:04,VALID,915.484,VALID,0,VALID,97.1376,VALID,63.2828,VALID,20.5414,VALID,334,VALID,0.00273437,
2014-06-03, 07:24:04,VALID,915.486,VALID,0,VALID,97.1147,VALID,62.9605,VALID,20.5789,VALID,334,VALID,0.348437,
2014-06-03, 07:25:04,VALID,915.507,VALID,0,VALID,97.1147,VALID,66.721,VALID,20.5999,VALID,334,VALID,0.297266,
2014-06-03, 07:26:04,VALID,915.53,VALID,0,VALID,97.1071,VALID,74.4567,VALID,20.5999,VALID,334,VALID,0.113672,
2014-06-03, 07:27:04,VALID,915.575,VALID,0,VALID,97.0918,VALID,83.4818,VALID,20.5984,VALID,334,VALID,0.191016,
2014-06-03, 07:28:04,VALID,915.576,VALID,0,VALID,97.1147,VALID,93.044,VALID,20.639,INVALID,360,VALID,0,
2014-06-03, 07:29:04,VALID,915.592,VALID,0,VALID,97.0994,VALID,103.036,VALID,20.6795,VALID,20,VALID,0.764063,
2014-06-03, 07:30:04,VALID,915.601,VALID,0,VALID,97.1223,VALID,102.714,VALID,20.5999,VALID,23,VALID,0.679297,
2014-06-03, 07:31:04,VALID,915.623,VALID,0,VALID,97.1071,VALID,101.962,VALID,20.639,VALID,23,VALID,0.603125,
2014-06-03, 07:32:04,VALID,915.632,VALID,0,VALID,97.0994,VALID,107.978,VALID,20.6959,VALID,23,VALID,0.417969,
2014-06-03, 07:33:04,VALID,915.619,VALID,0,VALID,97.0918,VALID,112.598,VALID,20.795,VALID,23,VALID,0.748047,
2014-06-03, 07:34:04,VALID,915.667,VALID,0,VALID,97.0766,VALID,115.929,VALID,20.834,VALID,23,VALID,0.553125,
2014-06-03, 07:35:04,VALID,915.647,VALID,0,VALID,97.0842,VALID,119.045,VALID,20.8145,VALID,23,VALID,1.04883,
2014-06-03, 07:36:04,VALID,915.646,VALID,0,VALID,97.0766,VALID,126.888,VALID,20.8145,VALID,23,VALID,0.800781,
2014-06-03, 07:37:04,VALID,915.659,VALID,0,VALID,97.0842,VALID,128.714,VALID,20.8925,VALID,44,VALID,1.06094,
2014-06-03, 07:38:04,VALID,915.666,VALID,0,VALID,97.0766,VALID,147.087,VALID,20.912,VALID,50,VALID,0.519922,
2014-06-03, 07:39:04,VALID,915.657,VALID,0,VALID,97.0461,VALID,169.435,VALID,20.9105,VALID,50,VALID,0.930078,
2014-06-03, 07:40:04,VALID,915.681,VALID,0,VALID,97.0537,VALID,142.574,VALID,21.0096,VALID,42,VALID,0.547266,
2014-06-03, 07:41:04,VALID,915.659,VALID,0,VALID,97.0385,VALID,154.608,VALID,21.0275,VALID,72,VALID,0.915625,
2014-06-03, 07:42:04,VALID,915.676,VALID,0,VALID,97.0613,VALID,171.691,VALID,20.9706,VALID,95,VALID,0.9875,
2014-06-03, 07:43:04,VALID,915.67,VALID,0,VALID,97.0461,VALID,219.073,VALID,21.0665,VALID,102,VALID,0.753906,
2014-06-03, 07:44:04,VALID,915.682,VALID,0,VALID,97.008,VALID,219.717,VALID,21.2437,VALID,102,VALID,0.766797,
2014-06-03, 07:45:04,VALID,915.663,VALID,0,VALID,96.9927,VALID,171.906,VALID,21.2632,VALID,165,VALID,0.671484,
2014-06-03, 07:46:04,VALID,915.694,VALID,0,VALID,97.0232,VALID,150.74,VALID,21.164,VALID,157,VALID,0.739062,
2014-06-03, 07:47:04,VALID,915.714,VALID,0,VALID,97.0156,VALID,154.393,VALID,21.1852,VALID,152,VALID,0.677734,
2014-06-03, 07:48:04,VALID,915.713,VALID,0,VALID,97.0232,VALID,180.931,VALID,21.2031,VALID,166,VALID,0.745313,
2014-06-03, 07:49:04,VALID,915.765,VALID,0,VALID,97.0308,VALID,186.84,VALID,21.125,VALID,163,VALID,0.454297,
2014-06-03, 07:50:04,VALID,915.769,VALID,0,VALID,97.0308,VALID,241.743,VALID,21.1445,VALID,163,VALID,0.221094,
2014-06-03, 07:51:04,VALID,915.796,VALID,0,VALID,97.0003,VALID,246.47,VALID,21.3591,VALID,163,VALID,0,
2014-06-03, 07:52:04,VALID,915.778,VALID,0,VALID,96.9698,VALID,239.701,VALID,21.4778,VALID,163,VALID,0,
2014-06-03, 07:53:04,VALID,915.814,VALID,0,VALID,96.9394,VALID,178.46,VALID,21.5542,VALID,163,VALID,0.0699219,
2014-06-03, 07:54:04,VALID,915.835,VALID,0,VALID,96.9241,VALID,163.633,VALID,21.6551,VALID,163,VALID,0,
2014-06-03, 07:55:04,VALID,915.829,VALID,0,VALID,96.9775,VALID,146.013,VALID,21.5314,VALID,163,VALID,0.451172,
2014-06-03, 07:56:04,VALID,915.85,VALID,0,VALID,96.9775,VALID,128.714,VALID,21.4762,VALID,163,VALID,0.369531,
2014-06-03, 07:57:04,VALID,915.854,VALID,0,VALID,96.9622,VALID,120.227,VALID,21.4355,VALID,163,VALID,0.171094,
2014-06-03, 07:58:04,VALID,915.865,VALID,0,VALID,96.9775,VALID,118.615,VALID,21.3965,VALID,162,VALID,0.548828,
2014-06-03, 07:59:04,VALID,915.889,VALID,0,VALID,96.9851,VALID,117.433,VALID,21.4144,VALID,162,VALID,0.726953,
2014-06-03, 08:00:04,VALID,915.863,VALID,0,VALID,96.5,0,0,0,0,0,0,0,0,
